Volver al catálogo

STARLINK-32386

ActivoComunicacionesVLEO
NORAD 61213·PAYLOAD·🇺🇸 United States

Lanzado Sep 20, 2024 desde Vandenberg Space Force Base

Loading…

Próximos Pases (próximas 24 horas)

TLE

ActualizadoSource: CelesTrak SupGP

Época: Sep 14, 2026, 20:48 UTC

1 61213C 24171P   26257.86715278 -.00025763  00000+0 -76084-3 0  2573
2 61213  53.1569 159.7544 0001280 104.6369  73.0967 15.34417126    16

Sigue STARLINK-32386 en tiempo real con AllMySat

Download on the App Store